Regional Weather Roundup
Issued by NWS

Home | Current Version | Previous Version | Graphics & Text | Print | Product List | Glossary On
Versions: 1 2 3 4 5 6 7 8 9 10 11 12 13 14 15 16 17 18 19 20 21 22 23 24 25 26 27 28 29 30 31 32 33 34 35 36 37 38 39 40 41 42 43 44 45 46 47 48 49 50
000
ASUS43 KLMK 241202
RWRKY
KENTUCKY REGIONAL WEATHER ROUNDUP
NATIONAL WEATHER SERVICE LOUISVILLE KY
800 AM EDT SUN JUL 24 2016

NOTE "FAIR" INDICATES FEW OR NO CLOUDS BELOW 12,000 FEET
WITH NO SIGNIFICANT WEATHER AND/OR OBSTRUCTIONS TO VISIBILITY.

KYZ001>023-026-027-061>063-070>075-241300-
WESTERN AND SOUTH CENTRAL KENTUCKY

CITY           SKY/WX    TMP DP  RH WIND       PRES   REMARKS
PADUCAH        SUNNY     78  74  87 SW3       29.96R
HENDERSON      SUNNY     75  72  88 CALM      29.96S
OWENSBORO      SUNNY     79  78  96 S6        29.99R FOG
HOPKINSVILLE   MOSUNNY   76  74  92 VRB2      30.00R
BOWLING GREEN  SUNNY     76  72  87 S5        30.01R
GLASGOW        NOT AVBL
$$

KYZ024-025-028>034-038-045-046-053-241300-
NORTH CENTRAL KENTUCKY

CITY           SKY/WX    TMP DP  RH WIND       PRES   REMARKS
LOUISVILLE/SDF CLOUDY    79  75  87 SE7       29.99R FOG
LOUISVILLE/LOU SUNNY     79  74  84 CALM      30.00R
FORT KNOX      SUNNY     77  74  92 S2        30.00R
$$

KYZ035>037-039>044-047>052-055>060-089>105-241300-
NORTHEAST KENTUCKY

CITY           SKY/WX    TMP DP  RH WIND       PRES   REMARKS
LEXINGTON      CLOUDY    76  73  91 S5        30.03R
COVINGTON      CLOUDY    79  75  87 CALM      30.01S
FRANKFORT      CLOUDY    77  72  84 CALM      30.01R
$$

KYZ054-064>069-076>088-106>120-241300-
SOUTHEAST KENTUCKY

CITY           SKY/WX    TMP DP  RH WIND       PRES   REMARKS
JACKSON        SUNNY     74  72  93 CALM      30.06R
LONDON         MOSUNNY   74  70  87 CALM      30.06R
SOMERSET       CLOUDY    72  72 100 CALM      30.06S
MIDDLESBORO    CLOUDY    71  71  99 CALM      30.09R
MONTICELLO     MOSUNNY  N/A N/A N/A NW9       30.07R
$$





USA.gov is the U.S. government's official web portal to all federal, state and local government web resources and services.